Time,TemperatureF,DewpointF,PressureIn,WindDirection,WindDirectionDegrees,WindSpeedMPH,WindSpeedGustMPH,Humidity,HourlyPrecipIn,Conditions,Clouds,dailyrainin,SoftwareType,DateUTC
2013-02-27 00:08:00,33.2,32.0,29.45,NE,40,0.0,0.0,96,0.00,,,0.00,weatherlink.com 1.10,2013-02-27 05:08:00,
2013-02-27 00:23:00,33.1,32.0,29.45,NE,40,0.0,0.0,96,0.00,,,0.00,weatherlink.com 1.10,2013-02-27 05:23:00,
2013-02-27 00:38:00,33.0,32.0,29.45,NE,40,0.0,0.0,97,0.00,,,0.00,weatherlink.com 1.10,2013-02-27 05:38:00,
2013-02-27 00:53:00,32.9,32.0,29.45,NE,40,0.0,0.0,97,0.00,,,0.00,weatherlink.com 1.10,2013-02-27 05:53:00,
2013-02-27 01:08:00,32.9,32.0,29.45,NE,40,0.0,0.0,97,0.00,,,0.00,weatherlink.com 1.10,2013-02-27 06:08:00,
2013-02-27 01:23:00,32.9,32.0,29.45,NE,40,0.0,0.0,97,0.00,,,0.00,weatherlink.com 1.10,2013-02-27 06:23:00,
2013-02-27 01:41:00,32.9,32.0,29.46,NE,40,0.0,0.0,97,0.00,,,0.00,weatherlink.com 1.10,2013-02-27 06:41:00,
2013-02-27 01:53:00,32.8,32.0,29.46,NE,40,0.0,0.0,97,0.00,,,0.00,weatherlink.com 1.10,2013-02-27 06:53:00,
2013-02-27 02:08:00,32.8,32.0,29.46,NE,40,0.0,0.0,97,0.00,,,0.00,weatherlink.com 1.10,2013-02-27 07:08:00,
2013-02-27 02:23:00,32.8,32.0,29.46,NE,40,0.0,0.0,97,0.00,,,0.00,weatherlink.com 1.10,2013-02-27 07:23:00,
2013-02-27 02:38:00,32.8,32.0,29.46,NE,40,0.0,0.0,97,0.00,,,0.00,weatherlink.com 1.10,2013-02-27 07:38:00,
2013-02-27 02:53:00,32.9,32.0,29.46,NE,40,0.0,0.0,97,0.00,,,0.00,weatherlink.com 1.10,2013-02-27 07:53:00,
2013-02-27 03:08:00,32.9,32.0,29.46,NE,40,0.0,0.0,97,0.00,,,0.00,weatherlink.com 1.10,2013-02-27 08:08:00,
2013-02-27 03:23:00,33.0,32.0,29.46,WSW,255,0.0,3.0,97,0.00,,,0.00,weatherlink.com 1.10,2013-02-27 08:23:00,
2013-02-27 03:38:00,33.1,32.0,29.46,WSW,255,0.0,2.0,97,0.00,,,0.00,weatherlink.com 1.10,2013-02-27 08:38:00,
2013-02-27 03:53:00,33.1,32.0,29.46,WSW,255,0.0,2.0,97,0.00,,,0.00,weatherlink.com 1.10,2013-02-27 08:53:00,
2013-02-27 04:08:00,33.1,33.0,29.46,WSW,251,0.0,3.0,98,0.00,,,0.00,weatherlink.com 1.10,2013-02-27 09:08:00,
2013-02-27 04:23:00,33.1,33.0,29.46,WSW,250,0.0,3.0,98,0.00,,,0.00,weatherlink.com 1.10,2013-02-27 09:23:00,
2013-02-27 04:38:00,33.1,33.0,29.46,WSW,250,0.0,2.0,98,0.00,,,0.00,weatherlink.com 1.10,2013-02-27 09:38:00,
2013-02-27 04:53:00,33.1,33.0,29.46,WSW,250,1.0,3.0,98,0.00,,,0.00,weatherlink.com 1.10,2013-02-27 09:53:00,
2013-02-27 05:08:00,33.1,33.0,29.46,WSW,250,0.0,2.0,98,0.00,,,0.00,weatherlink.com 1.10,2013-02-27 10:08:00,
2013-02-27 05:23:00,33.1,33.0,29.47,WSW,250,0.0,3.0,98,0.00,,,0.00,weatherlink.com 1.10,2013-02-27 10:23:00,
2013-02-27 05:38:00,33.1,33.0,29.48,WSW,250,0.0,2.0,98,0.00,,,0.00,weatherlink.com 1.10,2013-02-27 10:38:00,
2013-02-27 05:53:00,33.1,33.0,29.48,WSW,250,0.0,3.0,98,0.00,,,0.00,weatherlink.com 1.10,2013-02-27 10:53:00,
2013-02-27 06:09:00,33.1,33.0,29.48,WSW,250,0.0,2.0,98,0.00,,,0.00,weatherlink.com 1.10,2013-02-27 11:09:00,
2013-02-27 06:24:00,33.1,33.0,29.49,WSW,250,0.0,4.0,98,0.00,,,0.00,weatherlink.com 1.10,2013-02-27 11:24:00,
2013-02-27 06:39:00,33.0,32.0,29.50,WSW,250,0.0,3.0,97,0.00,,,0.00,weatherlink.com 1.10,2013-02-27 11:39:00,
2013-02-27 06:54:00,33.0,32.0,29.50,WSW,250,3.0,5.0,97,0.00,,,0.00,weatherlink.com 1.10,2013-02-27 11:54:00,
2013-02-27 07:09:00,33.0,32.0,29.51,SW,223,0.0,5.0,97,0.00,,,0.00,weatherlink.com 1.10,2013-02-27 12:09:00,
2013-02-27 07:24:00,33.0,32.0,29.50,WSW,246,0.0,5.0,97,0.00,,,0.00,weatherlink.com 1.10,2013-02-27 12:24:00,
2013-02-27 07:39:00,33.0,32.0,29.51,SW,234,1.0,3.0,97,0.00,,,0.00,weatherlink.com 1.10,2013-02-27 12:39:00,
2013-02-27 07:54:00,33.0,32.0,29.52,WSW,249,3.0,5.0,97,0.00,,,0.00,weatherlink.com 1.10,2013-02-27 12:54:00,
2013-02-27 08:09:00,33.0,32.0,29.52,West,269,0.0,5.0,97,0.00,,,0.00,weatherlink.com 1.10,2013-02-27 13:09:00,
2013-02-27 08:24:00,33.1,33.0,29.53,WSW,242,0.0,6.0,98,0.00,,,0.00,weatherlink.com 1.10,2013-02-27 13:24:00,
2013-02-27 08:39:00,33.2,33.0,29.53,SSW,211,1.0,5.0,97,0.00,,,0.00,weatherlink.com 1.10,2013-02-27 13:39:00,
2013-02-27 08:54:00,33.2,33.0,29.54,SW,231,1.0,7.0,97,0.00,,,0.00,weatherlink.com 1.10,2013-02-27 13:54:00,
2013-02-27 09:09:00,33.3,33.0,29.54,South,190,0.0,7.0,97,0.00,,,0.00,weatherlink.com 1.10,2013-02-27 14:09:00,
2013-02-27 09:24:00,33.4,33.0,29.54,WSW,248,3.0,6.0,97,0.00,,,0.00,weatherlink.com 1.10,2013-02-27 14:24:00,
2013-02-27 09:39:00,33.4,33.0,29.55,West,271,0.0,7.0,97,0.00,,,0.00,weatherlink.com 1.10,2013-02-27 14:39:00,
2013-02-27 09:54:00,33.5,33.0,29.55,West,269,0.0,4.0,97,0.01,,,0.01,weatherlink.com 1.10,2013-02-27 14:54:00,
2013-02-27 10:09:00,33.6,33.0,29.55,SW,228,0.0,6.0,97,0.01,,,0.01,weatherlink.com 1.10,2013-02-27 15:09:00,
2013-02-27 10:24:00,33.7,33.0,29.55,WSW,245,0.0,6.0,97,0.02,,,0.02,weatherlink.com 1.10,2013-02-27 15:24:00,
2013-02-27 10:39:00,33.8,33.0,29.56,WSW,237,4.0,7.0,97,0.03,,,0.03,weatherlink.com 1.10,2013-02-27 15:39:00,
2013-02-27 10:54:00,33.9,33.0,29.56,SSW,205,1.0,8.0,96,0.03,,,0.04,weatherlink.com 1.10,2013-02-27 15:54:00,
2013-02-27 11:09:00,34.1,33.0,29.55,SW,233,4.0,9.0,96,0.04,,,0.05,weatherlink.com 1.10,2013-02-27 16:09:00,
2013-02-27 11:24:00,34.2,33.0,29.55,WSW,250,2.0,7.0,96,0.04,,,0.06,weatherlink.com 1.10,2013-02-27 16:24:00,
2013-02-27 11:39:00,34.6,34.0,29.56,West,265,0.0,7.0,96,0.05,,,0.08,weatherlink.com 1.10,2013-02-27 16:39:00,
2013-02-27 11:54:00,34.7,34.0,29.56,West,267,3.0,7.0,95,0.05,,,0.09,weatherlink.com 1.10,2013-02-27 16:54:00,
2013-02-27 12:09:00,34.7,34.0,29.56,West,262,5.0,6.0,95,0.06,,,0.11,weatherlink.com 1.10,2013-02-27 17:09:00,
2013-02-27 12:24:00,35.0,34.0,29.56,SW,217,1.0,8.0,95,0.06,,,0.12,weatherlink.com 1.10,2013-02-27 17:24:00,
2013-02-27 12:39:00,35.0,34.0,29.56,SW,227,4.0,8.0,95,0.05,,,0.13,weatherlink.com 1.10,2013-02-27 17:39:00,
2013-02-27 13:09:00,34.9,33.0,29.55,WSW,254,7.0,10.0,94,0.04,,,0.15,weatherlink.com 1.10,2013-02-27 18:09:00,
2013-02-27 13:24:00,34.8,33.0,29.55,WSW,244,13.0,13.0,93,0.03,,,0.15,weatherlink.com 1.10,2013-02-27 18:24:00,
2013-02-27 13:39:00,34.6,33.0,29.55,ENE,59,3.0,8.0,94,0.03,,,0.16,weatherlink.com 1.10,2013-02-27 18:39:00,
2013-02-27 13:54:00,34.5,33.0,29.55,West,266,0.0,12.0,93,0.02,,,0.16,weatherlink.com 1.10,2013-02-27 18:54:00,
2013-02-27 14:09:00,34.4,33.0,29.55,WSW,243,4.0,9.0,93,0.01,,,0.16,weatherlink.com 1.10,2013-02-27 19:09:00,
2013-02-27 14:24:00,34.4,33.0,29.55,SW,219,1.0,9.0,93,0.00,,,0.16,weatherlink.com 1.10,2013-02-27 19:24:00,
2013-02-27 14:39:00,34.3,33.0,29.55,WSW,245,0.0,11.0,93,0.01,,,0.17,weatherlink.com 1.10,2013-02-27 19:39:00,
2013-02-27 14:54:00,34.3,33.0,29.56,SSW,208,2.0,10.0,94,0.01,,,0.17,weatherlink.com 1.10,2013-02-27 19:54:00,
2013-02-27 15:09:00,34.2,33.0,29.56,SW,232,1.0,8.0,94,0.01,,,0.17,weatherlink.com 1.10,2013-02-27 20:09:00,
2013-02-27 15:24:00,34.1,33.0,29.56,SSW,212,0.0,9.0,94,0.01,,,0.17,weatherlink.com 1.10,2013-02-27 20:24:00,
2013-02-27 15:39:00,34.0,32.0,29.56,SW,226,1.0,9.0,93,0.01,,,0.18,weatherlink.com 1.10,2013-02-27 20:39:00,
2013-02-27 15:55:00,33.9,32.0,29.56,SW,232,1.0,9.0,94,0.01,,,0.18,weatherlink.com 1.10,2013-02-27 20:55:00,
2013-02-27 16:10:00,33.9,32.0,29.57,SW,232,3.0,6.0,94,0.01,,,0.18,weatherlink.com 1.10,2013-02-27 21:10:00,
2013-02-27 16:25:00,33.7,32.0,29.57,WSW,256,3.0,7.0,94,0.02,,,0.19,weatherlink.com 1.10,2013-02-27 21:25:00,
2013-02-27 16:40:00,33.6,32.0,29.57,WNW,290,1.0,9.0,95,0.01,,,0.19,weatherlink.com 1.10,2013-02-27 21:40:00,
2013-02-27 16:55:00,33.5,32.0,29.57,WSW,240,0.0,10.0,95,0.01,,,0.19,weatherlink.com 1.10,2013-02-27 21:55:00,
2013-02-27 17:10:00,33.4,32.0,29.58,SW,232,4.0,7.0,95,0.01,,,0.19,weatherlink.com 1.10,2013-02-27 22:10:00,
2013-02-27 17:25:00,33.1,32.0,29.58,SW,232,1.0,8.0,96,0.01,,,0.20,weatherlink.com 1.10,2013-02-27 22:25:00,
2013-02-27 17:40:00,32.9,32.0,29.58,SW,228,3.0,10.0,96,0.01,,,0.20,weatherlink.com 1.10,2013-02-27 22:40:00,
2013-02-27 17:55:00,32.8,32.0,29.59,SSW,198,4.0,7.0,96,0.01,,,0.20,weatherlink.com 1.10,2013-02-27 22:55:00,
2013-02-27 18:10:00,32.6,32.0,29.59,South,186,0.0,7.0,96,0.01,,,0.20,weatherlink.com 1.10,2013-02-27 23:10:00,
2013-02-27 18:25:00,32.4,31.0,29.60,WSW,242,2.0,9.0,96,0.00,,,0.20,weatherlink.com 1.10,2013-02-27 23:25:00,
2013-02-27 18:40:00,32.3,31.0,29.60,SW,229,1.0,7.0,96,0.00,,,0.20,weatherlink.com 1.10,2013-02-27 23:40:00,
2013-02-27 18:55:00,32.1,31.0,29.60,WSW,248,0.0,12.0,96,0.00,,,0.20,weatherlink.com 1.10,2013-02-27 23:55:00,
2013-02-27 19:10:00,32.1,31.0,29.60,SW,214,0.0,0.0,96,0.00,,,0.20,weatherlink.com 1.10,2013-02-28 00:10:00,
2013-02-27 19:25:00,31.9,31.0,29.61,West,261,0.0,0.0,96,0.00,,,0.20,weatherlink.com 1.10,2013-02-28 00:25:00,
2013-02-27 19:40:00,31.7,31.0,29.61,West,268,0.0,0.0,96,0.00,,,0.20,weatherlink.com 1.10,2013-02-28 00:40:00,
2013-02-27 19:55:00,31.7,31.0,29.61,WNW,284,0.0,0.0,96,0.00,,,0.20,weatherlink.com 1.10,2013-02-28 00:55:00,
2013-02-27 20:10:00,31.6,31.0,29.61,SW,234,0.0,0.0,96,0.00,,,0.20,weatherlink.com 1.10,2013-02-28 01:10:00,
2013-02-27 20:25:00,31.4,30.0,29.61,WSW,243,0.0,0.0,96,0.00,,,0.20,weatherlink.com 1.10,2013-02-28 01:25:00,
2013-02-27 20:40:00,31.3,31.0,29.61,SW,219,0.0,0.0,97,0.00,,,0.20,weatherlink.com 1.10,2013-02-28 01:40:00,
2013-02-27 20:55:00,31.4,31.0,29.61,WSW,250,0.0,0.0,97,0.00,,,0.20,weatherlink.com 1.10,2013-02-28 01:55:00,
2013-02-27 21:10:00,31.3,30.0,29.61,West,261,0.0,0.0,96,0.00,,,0.20,weatherlink.com 1.10,2013-02-28 02:10:00,
2013-02-27 21:25:00,31.4,30.0,29.61,WSW,242,0.0,0.0,96,0.00,,,0.20,weatherlink.com 1.10,2013-02-28 02:25:00,
2013-02-27 21:40:00,31.4,30.0,29.61,WSW,242,0.0,0.0,96,0.00,,,0.20,weatherlink.com 1.10,2013-02-28 02:40:00,
2013-02-27 21:55:00,31.4,30.0,29.61,WNW,284,0.0,0.0,96,0.00,,,0.20,weatherlink.com 1.10,2013-02-28 02:55:00,
2013-02-27 22:10:00,31.4,30.0,29.61,SW,229,0.0,0.0,96,0.00,,,0.20,weatherlink.com 1.10,2013-02-28 03:10:00,
2013-02-27 22:25:00,31.4,30.0,29.61,West,266,0.0,0.0,96,0.00,,,0.20,weatherlink.com 1.10,2013-02-28 03:25:00,
2013-02-27 22:40:00,31.4,30.0,29.61,WNW,288,0.0,0.0,96,0.00,,,0.20,weatherlink.com 1.10,2013-02-28 03:40:00,
2013-02-27 22:55:00,31.4,30.0,29.61,WSW,258,0.0,0.0,96,0.00,,,0.20,weatherlink.com 1.10,2013-02-28 03:55:00,
2013-02-27 23:10:00,31.4,30.0,29.60,SW,217,0.0,0.0,96,0.00,,,0.20,weatherlink.com 1.10,2013-02-28 04:10:00,
2013-02-27 23:25:00,31.5,31.0,29.60,West,277,0.0,0.0,97,0.00,,,0.20,weatherlink.com 1.10,2013-02-28 04:25:00,
2013-02-27 23:40:00,31.6,31.0,29.60,ENE,75,0.0,0.0,97,0.00,,,0.20,weatherlink.com 1.10,2013-02-28 04:40:00,